This is the latest recevied weather packets stored in our database for station/object KF0JHJ. If no packets are shown the sender has not sent any weather packets the latest 10 day(s).
| Time | Temp. | Humidity | Pressure | Rain* | Wind** | Luminosity | Snow |
|---|---|---|---|---|---|---|---|
| 1777427422 | 7.78° C | 66% | 1015.3 hPa | - | - | 0 W/m² | - |
| 1777427117 | 7.78° C | 66% | 1015.2 hPa | - | - | 0 W/m² | - |
| 1777426816 | 7.78° C | 65% | 1015.1 hPa | - | - | 0 W/m² | - |
| 1777426507 | 7.78° C | 65% | 1015.2 hPa | - | - | 0 W/m² | - |
| 1777426202 | 8.33° C | 64% | 1015.1 hPa | - | - | 0 W/m² | - |
| 1777425897 | 8.33° C | 64% | 1014.9 hPa | - | - | 0 W/m² | - |
| 1777425593 | 8.33° C | 63% | 1014.9 hPa | - | - | 0 W/m² | - |
| 1777425289 | 8.89° C | 62% | 1014.7 hPa | - | - | 0 W/m² | - |
| 1777424986 | 8.89° C | 61% | 1014.6 hPa | - | - | 0 W/m² | - |
| 1777424681 | 8.89° C | 62% | 1014.6 hPa | - | - | 2 W/m² | - |
| 1777424376 | 8.89° C | 61% | 1014.6 hPa | - | - | 5 W/m² | - |
| 1777424072 | 8.89° C | 60% | 1014.1 hPa | - | - | 9 W/m² | - |
| 1777423770 | 9.44° C | 59% | 1014.4 hPa | - | - | 12 W/m² | - |
| 1777423466 | 9.44° C | 59% | 1014.3 hPa | - | - | 15 W/m² | - |
| 1777423161 | 9.44° C | 59% | 1014.2 hPa | - | - | 18 W/m² | - |
| 1777422855 | 9.44° C | 58% | 1014.1 hPa | - | - | 22 W/m² | - |
| 1777422551 | 10° C | 57% | 1014.1 hPa | - | - | 21 W/m² | - |
| 1777422247 | 10° C | 57% | 1013.8 hPa | - | - | 21 W/m² | - |
| 1777421946 | 10° C | 56% | 1013.8 hPa | - | - | 22 W/m² | - |
| 1777421642 | 10° C | 56% | 1014 hPa | - | - | 24 W/m² | - |
| 1777421336 | 10° C | 55% | 1013.8 hPa | - | - | 29 W/m² | - |
| 1777421034 | 10.56° C | 54% | 1013.4 hPa | - | - | 32 W/m² | - |
| 1777420730 | 10.56° C | 54% | 1013.5 hPa | - | - | 32 W/m² | - |
| 1777420426 | 11.11° C | 57% | 1013.6 hPa | - | - | 35 W/m² | - |
| 1777420123 | 11.11° C | 55% | 1013.5 hPa | - | - | 39 W/m² | - |
* Rain since midnight (hover to see other rain measurements)
** Current wind speed in m/s (hover to see current wind gust speed)